Regional Weather Roundup
Issued by NWS

Home | Current Version | Previous Version | Graphics & Text | Print | Product List | Glossary On
Versions: 1 2 3 4 5 6 7 8 9 10 11 12 13 14 15 16 17 18 19 20 21 22 23 24 25 26 27 28 29 30 31 32 33 34 35 36 37 38 39 40 41 42 43 44 45 46 47 48 49 50
727
ASUS45 KCYS 211510
RWRWY

WYOMING REGIONAL WEATHER ROUNDUP
NATIONAL WEATHER SERVICE CHEYENNE WY
900 AM MDT SAT APR 21 2018

NOTE:  "FAIR" INDICATES FEW OR NO CLOUDS BELOW 12,000 FEET
WITH NO SIGNIFICANT WEATHER AND/OR OBSTRUCTIONS TO VISIBILITY.

WYZ001-211600-
YELLOWSTONE NATIONAL PARK

CITY           SKY/WX    TMP DP  RH WIND       PRES   REMARKS
LK YELLOWSTONE   N/A     28  22  78 CALM      30.24S
W YELLOWSTONE  NOT AVBL

$$
WYZ002>013-054>058-071-098>099-211600-
NORTHERN WYOMING

CITY           SKY/WX    TMP DP  RH WIND       PRES   REMARKS
JACKSON        FAIR      38  25  59 N5        30.21F WCI  34
CODY           FAIR      51  30  44 CALM      30.12S
GREYBULL       FAIR      46  37  71 VRB3      30.11F
WORLAND        FAIR      46  36  68 W5        30.11F
SHERIDAN       FAIR      45  36  70 CALM      30.10F
BUFFALO        FAIR      47  36  65 CALM      30.10F
GILLETTE       FAIR      45  36  70 S16       30.12F
HULETT         FAIR      43  34  70 SW18      30.16S
NEWCASTLE      CLOUDY    36  36 100 SE12G17   30.20F WCI  27

$$
WYZ014>020-022>026-101>103-211600-
CENTRAL WYOMING

CITY           SKY/WX    TMP DP  RH WIND       PRES   REMARKS
BIG PINEY      FAIR      34  30  85 VRB3      30.21F
PINEDALE       CLOUDY    34  32  93 S5        30.21F WCI  30
DUBOIS         FAIR      41  25  52 NW12      30.15F
LANDER         FAIR      41  33  73 SE3       30.14S
RIVERTON       FAIR      43  35  73 VRB3      30.15F
CASPER         FAIR      40  38  93 S3        30.15S
DOUGLAS        CLOUDY    37  36  96 SE9       30.17F WCI  30

$$
WYZ021-027>030-104>119-211600-
SOUTHERN WYOMING

CITY           SKY/WX    TMP DP  RH WIND       PRES   REMARKS
EVANSTON       FAIR      42  27  55 SW8       30.23R
KEMMERER       FAIR      41  28  60 NW10      30.21S
FORT BRIDGER   FAIR      46  29  51 W8        30.24R
ROCK SPRINGS   FAIR      40  32  73 CALM      30.19S
DIXON          CLOUDY    38  32  76 N5        30.19S WCI  35
RAWLINS          N/A    N/A N/A N/A MISG      30.15F
SARATOGA       CLOUDY    32  32 100 CALM      30.18S FOG
LARAMIE        MIX PCPN  28  28 100 SW3       30.15R FOG
CHEYENNE       LGT SNOW  31  31 100 CALM      30.16S VSB 3/4
TORRINGTON     LGT SNOW  33  33 100 E5        30.20F FOG     WCI  29
PINE BLUFFS    CLOUDY    32  32 100 MISG      30.19R

$$




USA.gov is the U.S. government's official web portal to all federal, state and local government web resources and services.